| time (UTC) | temp C | wind direction | speed KPH | gust KPH | rain 1hr cm | rain 24hr cm | rain mn cm | humidity % | barometer mb |
| 20260502190046 | 21 | 50 | 3.2 | 0.0 | 0.00 | 0.00 | 0.00 | 55 | 1020.1 |
| 20260502184554 | 21 | 79 | 3.2 | 0.0 | 0.00 | 0.00 | 0.00 | 54 | 1020.4 |
| 20260502183044 | 21 | 72 | 3.2 | 0.0 | 0.00 | 0.00 | 0.00 | 51 | 1020.6 |
| 20260502181545 | 21 | 297 | 3.2 | 0.0 | 0.00 | 0.00 | 0.00 | 53 | 1020.8 |
| 20260502163031 | 18 | 33 | 3.2 | 0.0 | 0.00 | 0.00 | 0.00 | 63 | 1022.0 |
| 20260502161526 | 17 | 10 | 3.2 | 0.0 | 0.00 | 0.00 | 0.00 | 62 | 1022.1 |
| 20260502151516 | 16 | 30 | 1.6 | 0.0 | 0.00 | 0.00 | 0.00 | 71 | 1022.0 |
| 20260502123048 | 8 | 301 | 0.0 | 0.0 | 0.00 | 0.00 | 0.00 | 93 | 1020.4 |
| 20260502121550 | 8 | 303 | 0.0 | 0.0 | 0.00 | 0.00 | 0.00 | 93 | 1020.1 |
| 20260502114538 | 8 | 320 | 0.0 | 0.0 | 0.00 | 0.00 | 0.00 | 92 | 1019.6 |
| 20260502113038 | 8 | 338 | 0.0 | 0.0 | 0.00 | 0.00 | 0.00 | 92 | 1019.4 |
| 20260502111539 | 8 | 338 | 0.0 | 0.0 | 0.00 | 0.00 | 0.00 | 91 | 1019.3 |
| 20260502110036 | 8 | 338 | 0.0 | 0.0 | 0.00 | 0.00 | 0.00 | 91 | 1019.0 |
| 20260502104530 | 8 | 338 | 0.0 | 0.0 | 0.00 | 0.00 | 0.00 | 91 | 1018.8 |
| 20260502103028 | 8 | 338 | 0.0 | 0.0 | 0.00 | 0.00 | 0.00 | 91 | 1018.5 |
| 20260502101526 | 9 | 357 | 0.0 | 0.0 | 0.00 | 0.00 | 0.00 | 91 | 1018.1 |
| 20260502091519 | 9 | 347 | 1.6 | 0.0 | 0.00 | 0.00 | 0.00 | 92 | 1017.6 |
| 20260502071511 | 10 | 352 | 1.6 | 0.0 | 0.00 | 0.00 | 0.00 | 92 | 1017.4 |
| 20260502070019 | 10 | 323 | 0.0 | 0.0 | 0.00 | 0.00 | 0.00 | 92 | 1017.4 |
| 20260502064507 | 10 | 4 | 0.0 | 0.0 | 0.00 | 0.00 | 0.00 | 91 | 1017.3 |
| 20260502063006 | 10 | 322 | 0.0 | 0.0 | 0.00 | 0.00 | 0.00 | 91 | 1017.3 |
| 20260502061504 | 10 | 322 | 0.0 | 0.0 | 0.00 | 0.00 | 0.00 | 91 | 1017.3 |
| 20260502060002 | 10 | 16 | 1.6 | 0.0 | 0.00 | 0.00 | 0.00 | 91 | 1017.5 |
| 20260502054501 | 10 | 20 | 1.6 | 0.0 | 0.00 | 0.00 | 0.00 | 91 | 1017.4 |
| 20260502053100 | 10 | 354 | 0.0 | 0.0 | 0.00 | 0.00 | 0.00 | 91 | 1017.2 |
| 20260502051558 | 11 | 34 | 0.0 | 0.0 | 0.00 | 0.00 | 0.00 | 91 | 1017.2 |
| 20260502050101 | 11 | 353 | 0.0 | 0.0 | 0.00 | 0.00 | 0.00 | 91 | 1017.1 |
| 20260502044555 | 11 | 355 | 0.0 | 0.0 | 0.00 | 0.00 | 2.26 | 90 | 1017.0 |
| 20260502043100 | 11 | 358 | 0.0 | 0.0 | 0.00 | 0.00 | 2.26 | 90 | 1017.0 |
| 20260502041553 | 11 | 360 | 0.0 | 0.0 | 0.00 | 0.00 | 2.26 | 90 | 1017.0 |
| 20260502040055 | 11 | 35 | 0.0 | 0.0 | 0.00 | 0.00 | 2.26 | 89 | 1016.8 |
| 20260502034554 | 11 | 10 | 1.6 | 0.0 | 0.00 | 0.00 | 2.26 | 89 | 1017.1 |
| 20260502033050 | 11 | 18 | 1.6 | 0.0 | 0.00 | 0.00 | 2.26 | 89 | 1017.0 |
| 20260502031549 | 11 | 42 | 1.6 | 0.0 | 0.00 | 0.00 | 2.26 | 89 | 1016.9 |
| 20260502030052 | 11 | 7 | 1.6 | 0.0 | 0.00 | 0.00 | 2.26 | 89 | 1016.7 |
| 20260502024550 | 11 | 27 | 1.6 | 0.0 | 0.00 | 0.00 | 2.26 | 89 | 1016.5 |
| 20260502023049 | 11 | 29 | 3.2 | 0.0 | 0.00 | 0.00 | 2.26 | 88 | 1016.3 |
| 20260502021541 | 11 | 36 | 1.6 | 0.0 | 0.00 | 0.00 | 2.26 | 89 | 1016.0 |
| 20260502020038 | 11 | 56 | 1.6 | 0.0 | 0.00 | 0.00 | 2.26 | 89 | 1015.4 |
| 20260502014536 | 11 | 22 | 1.6 | 0.0 | 0.00 | 0.00 | 2.26 | 89 | 1015.2 |
| 20260502013042 | 11 | 35 | 3.2 | 0.0 | 0.00 | 0.00 | 2.26 | 88 | 1015.0 |
| 20260502011534 | 11 | 49 | 3.2 | 0.0 | 0.00 | 0.00 | 2.26 | 88 | 1014.8 |
| 20260502010030 | 11 | 55 | 3.2 | 0.0 | 0.00 | 0.00 | 2.26 | 89 | 1014.5 |
| 20260502004547 | 11 | 55 | 4.8 | 0.0 | 0.00 | 0.00 | 2.26 | 90 | 1014.2 |
| 20260502003027 | 11 | 33 | 4.8 | 0.0 | 0.00 | 0.00 | 2.26 | 91 | 1014.1 |
| 20260502001527 | 11 | 24 | 4.8 | 0.0 | 0.00 | 0.00 | 2.26 | 91 | 1013.7 |
| 20260502000043 | 11 | 50 | 4.8 | 0.0 | 0.00 | 0.00 | 2.26 | 92 | 1013.5 |
| 20260501234530 | 11 | 48 | 4.8 | 0.0 | 0.00 | 0.00 | 2.26 | 92 | 1013.9 |
| 20260501233022 | 12 | 4 | 4.8 | 0.0 | 0.00 | 0.00 | 2.26 | 93 | 1013.5 |
| 20260501231535 | 12 | 41 | 4.8 | 0.0 | 0.00 | 0.00 | 2.26 | 93 | 1012.8 |
| 20260501230021 | 12 | 56 | 4.8 | 0.0 | 0.00 | 0.00 | 2.26 | 93 | 1013.1 |
| 20260501224518 | 12 | 27 | 6.4 | 0.0 | 0.00 | 0.00 | 2.24 | 93 | 1012.9 |
| 20260501223015 | 12 | 355 | 4.8 | 0.0 | 0.00 | 0.00 | 2.24 | 93 | 1012.6 |
| 20260501221518 | 12 | 14 | 4.8 | 0.0 | 0.00 | 0.00 | 2.21 | 93 | 1012.6 |
| 20260501220014 | 12 | 21 | 3.2 | 0.0 | 0.00 | 0.00 | 2.18 | 93 | 1012.6 |
| 20260501214517 | 12 | 20 | 4.8 | 0.0 | 0.00 | 0.00 | 2.11 | 92 | 1012.9 |
| 20260501213011 | 12 | 11 | 3.2 | 0.0 | 0.00 | 0.00 | 2.06 | 93 | 1012.6 |
| 20260501211511 | 13 | 60 | 4.8 | 0.0 | 0.00 | 0.00 | 2.06 | 93 | 1011.9 |
| 20260501210009 | 13 | 349 | 3.2 | 0.0 | 0.00 | 0.00 | 2.06 | 93 | 1011.3 |
| 20260501204509 | 13 | 29 | 6.4 | 0.0 | 0.00 | 0.00 | 2.06 | 93 | 1010.8 |
| 20260501203006 | 13 | 101 | 4.8 | 0.0 | 0.00 | 0.00 | 2.06 | 93 | 1010.9 |
| 20260501201506 | 13 | 67 | 4.8 | 0.0 | 0.00 | 0.00 | 2.06 | 94 | 1010.0 |
| 20260501200004 | 13 | 8 | 4.8 | 0.0 | 0.00 | 0.00 | 2.06 | 94 | 1010.8 |
| 20260501194510 | 13 | 42 | 3.2 | 0.0 | 0.00 | 0.00 | 2.06 | 94 | 1010.6 |
| 20260501193007 | 13 | 356 | 1.6 | 0.0 | 0.00 | 0.00 | 2.01 | 94 | 1011.6 |
| 20260501191503 | 13 | 12 | 3.2 | 0.0 | 0.00 | 0.00 | 1.98 | 94 | 1011.8 |